Page, AZ

4:24 AM MDT on October 01, 2016 (GMT -0600)
Page Municipal

Weather History for KPGA - April, 2013

Change the Weather History Date:

Tuesday, April 2, 2013

  Actual Average Record
Temperature  
Mean Temperature 54 °F -  
Max Temperature 64 °F 63 °F 84 °F (1959)
Min Temperature 45 °F 39 °F 25 °F (1975)
Degree Days  
Heating Degree Days 10    
Growing Degree Days 4 (Base 50)    
Moisture  
Dew Point 30 °F    
Average Humidity 37    
Maximum Humidity 50    
Minimum Humidity 19    
Precipitation  
Precipitation 0.00 in - - ()
Sea Level Pressure  
Sea Level Pressure 29.87 in    
Wind  
Wind Speed 3 mph (NW)    
Max Wind Speed 12 mph    
Max Gust Speed 16 mph    
Visibility 10 miles    
Events Rain    
Averages and records for this station are not official NWS values.
T = Trace of Precipitation, MM = Missing Value Source: NWS Daily Summary

Daily Weather History Graph

Daily Weather History Graph

Search for Another Location

Airport or City:

Trip Planner

Search our weather history database for the weather conditions in past years. The results will help you decide how hot, cold, wet, or windy it might be!

Date:

Astronomy

Apr. 02, 2013 Rise Set
Actual Time 6:09 AM MST 6:49 PM MST
Civil Twilight 5:43 AM MST 7:15 PM MST
Nautical Twilight 5:12 AM MST 7:46 PM MST
Astronomical Twilight 4:41 AM MST 8:18 PM MST
Moon 12:51 AM MST (4/2) 11:10 AM MST (4/2)
Length of Visible Light 13h 32m
Length of Day
12h 39m
Waning Gibbous, 55% of the Moon is Illuminated
Apr 2
Waning Gibbous
Apr 2
Last Quarter
Apr 10
New
Apr 18
First Quarter
Apr 25
Full

Hourly Weather History & Observations

Time (MST) Temp. Dew Point Humidity Pressure Visibility Wind Dir Wind Speed Gust Speed Precip Events Conditions
12:53 AM 53.1 °F 28.0 °F 38% 29.83 in 10.0 mi West 4.6 mph - N/A   Clear
1:53 AM 50.0 °F 28.0 °F 43% 29.82 in 10.0 mi SW 3.5 mph - N/A   Clear
2:53 AM 48.9 °F 27.0 °F 43% 29.82 in 10.0 mi Calm Calm - N/A   Clear
3:53 AM 46.9 °F 27.0 °F 46% 29.83 in 10.0 mi SSE 3.5 mph - N/A   Clear
4:53 AM 46.0 °F 28.0 °F 50% 29.83 in 10.0 mi Calm Calm - N/A   Clear
5:53 AM 45.0 °F 27.0 °F 49% 29.85 in 10.0 mi Calm Calm - N/A   Clear
6:53 AM 48.0 °F 28.0 °F 46% 29.87 in 10.0 mi Calm Calm - N/A   Clear
7:53 AM 50.0 °F 28.9 °F 44% 29.88 in 10.0 mi SE 3.5 mph - N/A   Clear
8:53 AM 53.1 °F 28.9 °F 40% 29.88 in 10.0 mi NNW 4.6 mph - N/A   Clear
9:53 AM 55.9 °F 28.9 °F 36% 29.87 in 10.0 mi West 5.8 mph - N/A   Overcast
10:53 AM 57.9 °F 28.0 °F 32% 29.87 in 10.0 mi SW 6.9 mph - N/A   Scattered Clouds
11:53 AM 62.1 °F 27.0 °F 26% 29.84 in 10.0 mi NNW 3.5 mph - N/A   Clear
12:53 PM 62.1 °F 26.1 °F 25% 29.83 in 10.0 mi Calm Calm - N/A   Mostly Cloudy
1:53 PM 62.1 °F 28.0 °F 28% 29.83 in 10.0 mi North 10.4 mph - 0.00 in Rain Light Rain
2:53 PM 64.9 °F 28.0 °F 25% 29.81 in 10.0 mi NE 10.4 mph 16.1 mph 0.00 in   Partly Cloudy
3:53 PM 59.0 °F 30.9 °F 35% 29.86 in 10.0 mi NNE 11.5 mph - N/A   Overcast
4:53 PM 61.0 °F 30.0 °F 31% 29.86 in 10.0 mi Calm Calm - N/A   Mostly Cloudy
5:53 PM 61.0 °F 30.9 °F 32% 29.88 in 10.0 mi North 8.1 mph - N/A   Overcast
6:53 PM 57.9 °F 33.1 °F 39% 29.89 in 10.0 mi Calm Calm - N/A   Partly Cloudy
7:53 PM 57.9 °F 32.0 °F 37% 29.91 in 10.0 mi Calm Calm - N/A   Mostly Cloudy
8:53 PM 55.4 °F 33.8 °F 44% 30.03 in 10.0 mi Calm Calm - N/A   Scattered Clouds
9:53 PM 55.0 °F 33.1 °F 43% 29.95 in 10.0 mi Calm Calm - N/A   Mostly Cloudy
10:53 PM 52.0 °F 34.0 °F 50% 29.96 in 10.0 mi Calm Calm - N/A   Clear
11:53 PM 52.0 °F 34.0 °F 50% 29.96 in 10.0 mi Calm Calm - N/A   Clear